Regional Weather Roundup
Issued by NWS

Home | Current Version | Previous Version | Text Only | Print | Product List | Glossary Off
Versions: 1 2 3 4 5 6 7 8 9 10 11 12 13 14 15 16 17 18 19 20 21 22 23 24 25 26 27 28 29 30 31 32 33 34 35 36 37 38 39 40 41 42 43 44 45 46 47 48 49 50

000
ASUS43 KMKX 222221
RWRWI

WISCONSIN REGIONAL WEATHER ROUNDUP
NATIONAL WEATHER SERVICE MILWAUKEE/SULLIVAN WI
500 PM CDT TUE APR 22 2014

NOTE: "FAIR" INDICATES FEW OR NO CLOUDS BELOW 12,000 FEET WITH NO
SIGNIFICANT WEATHER AND/OR OBSTRUCTIONS TO VISIBILITY.

WIZ001-002-006>008-014>016-023>028-222300-
NORTHWEST WISCONSIN

CITY           SKY/WX    TMP DP  RH WIND       PRES   REMARKS
SUPERIOR ARPT  SUNNY     54  24  31 NE5       30.07S
ASHLAND        SUNNY     49  25  39 N9        30.08F
HAYWARD        SUNNY     52  22  30 VRB7G18   30.07S
SIREN          SUNNY     53  19  26 N6        30.06F
RICE LAKE      SUNNY     53  23  30 N9        30.07S
LADYSMITH      SUNNY     51  24  34 NW6G17    30.06F
EAU CLAIRE     SUNNY     56  20  24 N12G20    30.04F
MENOMONIE      CLEAR     56  18  23 N17       30.05F
NEW RICHMOND   SUNNY     55  22  27 N10G16    30.05F
OSCEOLA        SUNNY     57  25  29 NW8       30.08F
$$

WIZ003>005-009-010-017-018-222300-
NORTH CENTRAL WISCONSIN

CITY           SKY/WX    TMP DP  RH WIND       PRES   REMARKS
WOODRUFF       SUNNY     46  25  43 N12G21    30.04S
RHINELANDER    PTSUNNY   42  24  49 N8G20     30.04S
EAGLE RIVER    CLOUDY    43  24  47 N13G21    30.03F
LAND O LAKES   CLOUDY    41  26  54 N13       30.04F
PHILLIPS       SUNNY     46  24  41 N14       30.04S
TOMAHAWK       SUNNY     46  24  42 N10G18    30.04S
MEDFORD        SUNNY     48  26  41 N8G17     30.03S
MERRILL        MOSUNNY   47  25  42 NE15G22   30.03S
$$

WIZ029-030-035-036-043>047-222300-
CENTRAL WISCONSIN

CITY           SKY/WX    TMP DP  RH WIND       PRES   REMARKS
WAUSAU         SUNNY     50  22  33 N16G22    30.01R
MOSINEE        MOSUNNY   48  25  40 NW15G21   30.03R
MARSHFIELD     MOSUNNY   53  25  33 N15G23    30.01F
STEVENS POINT  MOSUNNY   48  23  37 N15       30.02S
WAUPACA        MOSUNNY   55  21  26 NW15      30.01S
WAUTOMA        SUNNY     55  23  29 N16G25    30.01R
WISC RAPIDS    SUNNY     54  24  31 N16G29    30.03R
CAMP DOUGLAS   MOSUNNY   57  25  28 N18       30.01S
$$

WIZ011>013-019>022-031-037>040-048>050-222300-
NORTHEAST WISCONSIN

CITY           SKY/WX    TMP DP  RH WIND       PRES   REMARKS
ANTIGO         MOSUNNY   44  28  54 N20       30.02S
STURGEON BAY   CLOUDY    45  27  49 NW15      30.01S
GREEN BAY      SUNNY     49  30  48 NW15G26   30.02R
MANITOWOC      MOSUNNY   47  27  45 N23G31    30.01R
APPLETON       MOSUNNY   50  25  37 N15G22    30.01R
CLINTONVILLE   MOSUNNY   50  23  34 N13       30.01S
OSHKOSH        SUNNY     53  26  35 N15G26    30.00R
$$

WIZ032>034-041-042-053>061-222300-
SOUTHWEST WISCONSIN

CITY           SKY/WX    TMP DP  RH WIND       PRES   REMARKS
LA CROSSE      SUNNY     60  24  25 N9G20     30.02S
SPARTA         SUNNY     56  20  25 N12G23    30.03S
VIROQUA        FAIR      56  26  31 N15G22    30.01S
BOSCOBEL       MOSUNNY   60  23  24 N9G20     30.01F
PRAIRIE DU CHI MOSUNNY   58  24  26 N14       30.01F
PLATTEVILLE    FAIR      58  25  28 NW10G24   30.01S
$$

WIZ056-057-062-063-064-067-068-222300-
SOUTH CENTRAL WISCONSIN

CITY           SKY/WX    TMP DP  RH WIND       PRES   REMARKS
BARABOO/DELLS  SUNNY     56  24  29 NW9G18    29.99S
LONE ROCK      MOSUNNY   59  27  29 NW14      29.99F
WATERTOWN      SUNNY     55  28  35 N10G18    29.98S
MADISON        MOSUNNY   58  25  28 NW13G23   29.99S
MIDDLETON      FAIR      59  22  24 N15G22    29.99S
MONROE         PTSUNNY   57  26  29 NW17      29.98S
JANESVILLE     SUNNY     61  21  21 N14       29.97R
$$

WIZ051-052-058>065-066-070>072-222300-
SOUTHEAST WISCONSIN

CITY           SKY/WX    TMP DP  RH WIND       PRES   REMARKS
MILWAUKEE      MOSUNNY   46  31  55 E8        30.00R
WAUKESHA       MOSUNNY   52  27  37 NW14G26   29.98S
MILWAUKEE/TIMM MOSUNNY   54  25  32 N15G23    29.98R
RACINE         MOSUNNY   45  30  55 E10       30.01R
BURLINGTON     SUNNY     55  28  35 N20G28    29.97S
KENOSHA        MOSUNNY   47  31  53 E13       29.99R
FOND DU LAC    MOSUNNY   51  28  41 NE20      30.00R
SHEBOYGAN      CLOUDY    50  28  42 N12G23    29.98S
WEST BEND      SUNNY     52  25  35 NW13G24   29.98R
JUNEAU         MOSUNNY   55  19  24 NW16G24   29.99S
$$

LSZ147-162-222300-
LAKE SUPERIOR

STATION/POSITION TIME  TEMP    WIND        PRES    WAVE
                       AIR SEA DIR/SP/G            HT/PER
                 (UTC) (F)     (DEG/KT/KT) (MB)    (FT/S)
DEVILS ISLAND    2200   44     230/  5/  8 1019.1F
PORT WING        2140   44     330/  3/  5 1018.6F
SAXON HARBOR     2100             CALM     1019.0F
$$

LMZ867-665-643>646-222300-
LAKE MICHIGAN

STATION/POSITION TIME  TEMP    WIND        PRES    WAVE
                       AIR SEA DIR/SP/G            HT/PER
                 (UTC) (F)     (DEG/KT/KT) (MB)    (FT/S)
NORTHPORT PIER   2100   35     330/  8/ 10 1015.6R
SISTER BAY       2124   42     360/ 14/ 16   N/A
KEWAUNEE LAKESHO 2200   46     340/ 17/ 21 1016.6R
SHEBOYGAN LAKESH 2200   43      30/ 16/ 18 1016.4R
PORT WASHINGTON  2100   54     330/ 11/ 19 1015.6
MILWAUKEE LAKESH 2200   40     130/  3/  4   N/A
KENOSHA   LAKESH 2200   44     120/  5/  6   N/A
$$

TC  - TEMPERATURE IN CELSIUS
VSB - VISIBILITY IN STATUTE MILES
WCI - WIND CHILL INDEX
HX  - HEAT INDEX




USA.gov is the U.S. government's official web portal to all federal, state and local government web resources and services.